2023-030D (55839 NORAD) Tracking and Keplerian Element Data

This shows tracking and keplerian element data for the satellite.

Feedback or suggestion? Click here.




ElementValue
Catalog55839
Name2023-030D
Epoch Orbit226
Epoch Day85.11053769
Epoch Year2023
RAAN93.2517
Inclination98.9954
Eccentricity0.0005815
Argument of Perigee184.8911
Mean Anonmoly175.2196
Mean Motion14.02942594
Decay Rate-3.2E-07
L11 55839U 23030D 23085.11053769 -.00000032 00000+0 77042-5 0 9998
L22 55839 98.9954 93.2517 0005815 184.8911 175.2196 14.02942594 2265



Live tracking and technical data element details for 2023-030D (NORAD 55839). 2023-030D can be tracked NOW for your location showing map with azimuth and elevation plus other details from your city location.







IsCatalogInMostPopularTable: catalog: 55839, numindb: 7
Update: records affected: 1



GetName: 55839 2023-030D

Hit Count: updated at: Tue, 06 Jun 2023 02:26:10 GMT